Cloud_Cover
0 16 98 85 99 93 86 81 100 93 100 100 80 100 89 5 51 23 60 78 30 60
0 10 99 100 100 100 78 97 97 100 98 94 100 99 100 96 98 12 72 99 99 98
0 5 79 80 100 100 90 100 98 99 100 100 100 100 92 100 100 100 100 100 41 73
0 1 20 26 17 5 74 20 100 83 100 100 100 100 100 100 100 100 100 100 100 91
20 3 100 37 5 5 97 100 90 84 97 100 100 100 100 98 100 100 100 100 100 100
6 5 5 48 82 100 100 100 98 91 98 100 100 100 100 100 100 100 100 100 100 100
4 3 5 14 89 100 100 84 42 60 68 95 98 93 98 88 98 99 100 100 100 100
7 91 6 40 100 100 100 100 100 100 85 61 67 79 97 35 20 99 100 100 97 99
24 0 5 94 40 100 100 100 100 100 100 79 60 50 98 27 62 100 99 100 100 100
98 63 24 97 38 98 100 100 100 100 100 7 5 6 45 44 7 12 17 92 100 100
100 100 100 96 100 97 85 100 100 100 95 45 5 29 5 6 5 5 5 12 97 88
100 100 100 98 100 100 97 74 98 99 14 70 14 46 6 5 5 5 5 12 32 47
100 100 100 100 100 97 100 100 99 100 67 34 12 30 79 23 6 20 64 21 12 41
100 100 100 100 100 100 100 100 100 98 100 100 94 60 20 71 38 18 80 22 95 100